Location: Poprad
(49.0500°N, 20.3000°E)
Time: 20:25:41
(UTC+02:00)

DOVE 4 - Visible Passes

Search period start: 22 April 2024 00:00
Search period end: 02 May 2024 00:00
Orbit: 580 x 782 km, 97.7° (Epoch: 22 April)

Date Brightness Start Highest point End Pass type
(mag) Time Alt. Az. Time Alt. Az. Time Alt. Az.
22 Apr ? 22:19:34 10° NNE 22:23:52 70° ESE 22:24:21 63° SSE visible
22 Apr ? 23:58:14 10° NNW 00:00:48 16° WNW 00:02:48 12° W visible
23 Apr ? 21:19:14 10° NE 21:22:20 19° E 21:22:37 19° E visible
23 Apr ? 22:55:48 10° N 22:59:59 52° WNW 23:01:04 42° WSW visible
24 Apr ? 21:54:35 10° NNE 21:58:43 40° E 21:59:18 38° ESE visible
24 Apr ? 23:32:23 10° N 23:35:56 25° WNW 23:37:45 19° W visible
25 Apr ? 20:55:36 10° ENE 20:56:58 11° E 20:57:32 11° E visible
25 Apr ? 22:30:31 10° NNE 22:34:54 90° NNW 22:35:59 52° SSW visible
26 Apr ? 00:09:41 10° NNW 00:11:42 13° WNW 00:13:45 10° W visible
26 Apr ? 21:29:48 10° NE 21:33:26 24° E 21:34:12 23° ESE visible
26 Apr ? 23:06:49 10° N 23:10:56 41° WNW 23:12:39 29° WSW visible
27 Apr ? 22:05:22 10° NNE 22:09:42 53° E 22:10:51 41° SSE visible
27 Apr ? 23:43:30 10° NNW 23:46:47 21° WNW 23:49:17 14° WSW visible
28 Apr ? 21:05:26 10° NE 21:08:01 15° E 21:09:03 14° ESE visible
28 Apr ? 22:41:23 10° N 22:45:48 71° WNW 22:47:29 38° SSW visible
29 Apr ? 00:21:22 10° NW 00:22:27 11° NW 00:23:33 10° WNW visible
29 Apr ? 21:40:21 10° NNE 21:44:23 31° E 21:45:40 27° SE visible
29 Apr ? 23:17:44 10° N 23:21:45 34° WNW 23:24:07 21° WSW visible
30 Apr ? 22:16:04 10° NNE 22:20:33 69° ESE 22:22:17 38° S visible
30 Apr ? 23:54:33 10° NNW 23:57:30 18° WNW 00:00:33 10° WSW visible
01 May ? 21:15:37 10° NE 21:18:56 19° E 21:20:26 17° ESE visible
01 May ? 22:52:09 10° N 22:56:34 56° WNW 22:58:52 28° SW visible
